Torna al catalogo

ARIANE 44L+ DEB

LostGTO
NORAD 34179·DEBRIS·🇫🇷 France

Lanciato Apr 15, 1992 da Guiana Space Centre

Loading…

TLE

ObsoletoSource: Space-Track

Epoca: Nov 11, 2025, 17:01 UTC

1 34179U 92021V   25315.70914163 -.00000209  00000-0  00000-0 0  9997
2 34179   3.6604  77.6683 7010181 324.2815  10.0478  2.24181973104467

Traccia ARIANE 44L+ DEB in tempo reale con AllMySat

Download on the App Store